National Weather Service Raw Text Product

Displaying AFOS PIL: RWRFL Received: 2018-02-18 23:00 UTC


594 
ASUS42 KTBW 182317
RWRFL 
FLORIDA REGIONAL WEATHER ROUNDUP
NATIONAL WEATHER SERVICE TAMPA BAY RUSKIN FL
600 PM EST SUN FEB 18 2018

NOTE: "FAIR" INDICATES FEW OR NO CLOUDS BELOW 12,000 FEET WITH NO
SIGNIFICANT WEATHER AND/OR OBSTRUCTIONS TO VISIBILITY.

FLZ001>010-012>015-112-114-115-190000-
PANHANDLE FLORIDA
  
CITY           SKY/WX    TMP DP  RH WIND       PRES   REMARKS
PENSACOLA      FAIR      73  65  75 S7        30.17S                  
PENSACOLA NAS  MOCLDY    72  66  81 SE6       30.17S                  
MILTON NAS     FAIR      74  62  66 S10       30.18R                  
CRESTVIEW      FAIR      76  59  55 S7        30.19R                  
DUKE FIELD     FAIR      74  62  64 S10       30.18R                  
VALPARAISO     MOCLDY    74  67  78 SW5       30.17S                  
MARY ESTHER    FAIR      72  68  86 S7        30.17R                  
PANAMA CITY    FAIR      74  62  66 S8        30.18R                  
TYNDALL AFB    FAIR      74  67  77 S6        30.20R                  
APALACHICOLA   FAIR      73  71  93 S7        30.20R                  

STATION/POSITION SKY/WX   TEMP    WIND        PRES    WAVE   SWELL
                          AIR SEA DIR/SP/G            HT/PER HT/PER
                          (F)     (DEG/KT/KT) (MB)    (FT/S) (FT/S)
29.2N   88.2W              73 73   90/ 10/ 12 1021.4
28.8N   86.0W              75 76  110/  8/ 10 1021.9R   1/ 5   2/ 5
PANAMA CITY BEAC           71 70  130/  3/  4 1022.6R
TOWER C                    71     160/  8/  8 1023.4R

$$
FLZ011-016>038-118-127-128-134-139-239-190000-
NORTH FLORIDA
  
CITY           SKY/WX    TMP DP  RH WIND       PRES   REMARKS
MARIANNA       FAIR      81  58  45 S5        30.17R                  
TALLAHASSEE    FAIR      76  65  68 S6        30.19R                  
PERRY          FAIR      77  64  62 SW6       30.21R                  
LIVE OAK       CLEAR     79  61  53 CALM      30.21R                  
CROSS CITY     FAIR      77  65  66 W7        30.25R                  
LAKE CITY      FAIR      77  59  53 CALM      30.20S                  
GAINESVILLE    CLOUDY    77  63  61 NE12      30.23R                  
WILLISTON      CLEAR     82  61  47 CALM      30.20R                  
PALATKA        FAIR      72  63  73 E12       30.24R                  
MAYPORT NAS    FOG       63  62  97 E13       30.25R VSB 1/4          
JACKSONVILLE   FAIR      68  63  84 E10       30.24R                  
JAX NAS        FAIR      74  63  68 E10       30.24R                  
JAX CECIL      CLEAR     75  64  69 E7        30.23R                  
FERNANDINA BEA CLOUDY    63  61  94 E10       30.25R VSB 1/4          
ST AUGUSTINE   FAIR      66  63  90 E5        30.26R                  
PALM COAST     CLEAR     66  63  88 E7        30.25R                  

STATION/POSITION SKY/WX   TEMP    WIND        PRES    WAVE   SWELL
                          AIR SEA DIR/SP/G            HT/PER HT/PER
                          (F)     (DEG/KT/KT) (MB)    (FT/S) (FT/S)
SHELL POINT      NOT AVBL
KEATON BEACH               71     260/  4/  4 1023.3R
CEDAR KEY                  71     310/  6/  7 1023.0R
FERNANDINA                 65 65   90/  6/ 11 1025.3R
30.7N   81.3W                 60                N/A     2/ 9
MAYPORT                    62 63   70/ 11/ 14 1024.6R
31.4N   80.9W              60 60   30/  6/  8 1024.9R   2/ 9   2/ 9
ST AUGUSTINE               63 61  130/  4/  4 1024.7R

$$
FLZ040-043>046-052-053-057-058-063-144-190000-
INTERIOR CENTRAL FLORIDA
  
CITY           SKY/WX    TMP DP  RH WIND       PRES   REMARKS
OCALA          FAIR      79  56  45 CALM      30.21R                  
LEESBURG       FAIR      81  56  42 NE13G20   30.22R                  
SANFORD        FAIR      73  61  65 E12       30.23R                  
ORLANDO EXEC   FAIR      76  61  59 E15       30.22R                  
ORLANDO INTL   FAIR      75  63  66 E15       30.22R                  
KISSIMMEE      FAIR      77  62  59 E13       30.22R                  
WINTER HAVEN   FAIR      82  55  39 E6        30.20R                  
LAKELAND       PTCLDY    81  52  36 E9        30.19R                  
BARTOW         FAIR      81  55  41 E6        30.19R                  
SEBRING        FAIR      82  57  42 E7        30.19R                  
OKEECHOBEE     MOCLDY    77  61  57 E6        30.20R                  

$$
FLZ041-047-054-059-064-141-147-190000-
EAST CENTRAL FLORIDA
  
CITY           SKY/WX    TMP DP  RH WIND       PRES   REMARKS
ORMOND BEACH   CLEAR     66  64  94 NE12      30.25R                  
DAYTONA BEACH  FAIR      69  66  90 NE9       30.25R                  
DELAND         FAIR      70  63  78 E12       30.24R                  
NEW SMYRNA BEA CLEAR     70  66  88 E6        30.26R                  
JFK SPACE CTR  FAIR      71  71 100 NE7       30.23R                  
CAPE CANAVERAL FAIR      72  67  86 NE6       30.22R                  
PATRICK AFB    FAIR      72  71  98 NE12      30.22R                  
MELBOURNE      FAIR      75  69  81 NE13      30.22R                  
VERO BEACH     FAIR      74  69  85 NE8       30.22R                  
FT PIERCE      FAIR      76  67  73 E12       30.21R                  
STUART         PTCLDY    77  66  69 E9        30.23R                  

STATION/POSITION SKY/WX   TEMP    WIND        PRES    WAVE   SWELL
                          AIR SEA DIR/SP/G            HT/PER HT/PER
                          (F)     (DEG/KT/KT) (MB)    (FT/S) (FT/S)
28.5N   80.2W              74 74   10/  8/ 10 1023.6R   2/10   2/10
TRIDENT PIER               72 69   30/  8/ 12 1024.9R
28.4N   80.5W                 70                N/A     2/11
27.5N   80.2W                 76                N/A     2/10

$$
FLZ050-056-061-142-242-148-248-149-249-151-251-155-255-
160-260-190000-
WEST CENTRAL FLORIDA
  
CITY           SKY/WX    TMP DP  RH WIND       PRES   REMARKS
CRYSTAL RIVER  FAIR      73  64  73 W5        30.21R                  
INVERNESS      FAIR      79  55  44 E3        30.20S                  
BROOKSVILLE    FAIR      76  63  64 NW10      30.20R                  
CLEARWATER AIR FAIR      70  63  78 NW7       30.21R                  
ST PETE CLEARW FAIR      76  60  57 NW9       30.20R                  
TAMPA INTL     FAIR      78  61  55 W9        30.20R                  
TAMPA EXEC     FAIR      79  55  44 W5        30.19R                  
PLANT CITY     FAIR      82  52  34 CALM      30.20S                  
MACDILL AFB    FAIR      78  62  58 W3        30.19R                  
PETER O KNIGHT MOCLDY    77  63  61 W6        30.19S                  
ST PETERSBURG  FAIR      78  54  43 W6        30.18R                  
SARASOTA       FAIR      76  57  51 NW8       30.18R                  
VENICE         FAIR      75  63  64 NW9       30.19S                  

STATION/POSITION SKY/WX   TEMP    WIND        PRES    WAVE   SWELL
                          AIR SEA DIR/SP/G            HT/PER HT/PER
                          (F)     (DEG/KT/KT) (MB)    (FT/S) (FT/S)
27.3N   84.2W                 74                N/A     2/ 3
CLEARWATER BEACH           70 70  320/  7/  8 1022.9R
MIDDLE TAMPA BAY           74     330/  5/  6 1022.5R
VENICE                     73 75  340/ 14/ 15 1022.3R

$$
FLZ066-069-070-075>078-162-262-165-265-190000-
SOUTHWEST FLORIDA AND KEYS
  
CITY           SKY/WX    TMP DP  RH WIND       PRES   REMARKS
PUNTA GORDA    CLOUDY    82  59  45 W6        30.18R                  
FT MYERS       MOCLDY    82  59  45 NW6       30.16R                  
SOUTHWEST INTL MOCLDY    82  59  45 E6        30.17R                  
NAPLES         MOCLDY    79  58  48 SW7       30.18R                  
MARCO ISLAND   FAIR      77  65  66 SW5       30.19R                  
IMMOKALEE      FAIR      82  61  47 E6G12     30.18R                  
MARATHON       FAIR      77  64  64 E12       30.17R                  
KEY WEST NAS   FAIR      76  69  79 E16       30.16R                  
KEY WEST INTL  FAIR      77  67  71 E15       30.17R                  

STATION/POSITION SKY/WX   TEMP    WIND        PRES    WAVE   SWELL
                          AIR SEA DIR/SP/G            HT/PER HT/PER
                          (F)     (DEG/KT/KT) (MB)    (FT/S) (FT/S)
NAPLES                        76  240/  5/  5 1021.9R
DRY TORTUGAS               73      70/ 10/ 12 1021.4R
SAND KEY                   76                 1021.9R
LONG KEY                   76 78  110/ 14/ 16 1021.6
MOLASSES REEF              76 77   90/ 15/ 17 1022.2R

$$
FLZ067-068-071>074-168-172>174-190000-
SOUTHEAST FLORIDA 
  
CITY           SKY/WX    TMP DP  RH WIND       PRES   REMARKS
W PALM BEACH   FAIR      77  64  64 E13       30.21R                  
BOCA RATON     CLEAR     75  64  69 E7        30.21R                  
FT LAUDER-EXEC FAIR      77  65  66 E10       30.20R                  
FT LAUDERDALE  FAIR      76  67  73 E15       30.20R                  
POMPANO BEACH  FAIR      76  67  73 E8        30.20R                  
PEMBROKE PINES FAIR      77  64  64 E12       30.21R                  
OPA LOCKA      FAIR      76  64  66 E13       30.20R                  
MIAMI          FAIR      78  65  63 E10       30.20R                  
WEST KENDALL   FAIR      76  64  66 E12       30.20R                  
HOMESTEAD      FAIR      76  65  68 E9        30.19R                  

STATION/POSITION SKY/WX   TEMP    WIND        PRES    WAVE   SWELL
                          AIR SEA DIR/SP/G            HT/PER HT/PER
                          (F)     (DEG/KT/KT) (MB)    (FT/S) (FT/S)
PORT EVERGLADES            77     110/  4/ 10 1022.8
VIRGINIA KEY                       70/  9/ 12   N/A
LAKE WORTH                 76 77  110/ 11/ 13 1023.9R
FOWEY ROCKS                75 76   90/ 14/ 15 1023.2R
SETTLEMENT POINT           76      70/ 12/ 15 1023.5R

$$